This demonstration page uses our WeatherBlox Daily Observations layout. Learn more.

Left ArrowRight Arrow

53.62937, 11.41316

Hourly Observations for February 29, 2016

Temp ( °F °C ) Dew Point ( °F °C ) Humidity (%) Winds ( mph kmh ) Pressure ( in mb ) Visibility ( mi km ) Precip ( " mm )
5:20 am 05:20 Mostly Cloudy 30 -1 28 -2 93 93 NE 7 11 30.27 1025 4 6 N/A
5:50 am 05:50 Mostly Cloudy with Mist and Fog 30 -1 28 -2 93 93 ENE 8 13 30.27 1025 3 5 N/A
6:20 am 06:20 Mostly Cloudy 30 -1 28 -2 93 93 NE 8 13 30.27 1025 4 6 N/A
6:50 am 06:50 Partly Cloudy 28 -2 27 -3 93 93 NNE 5 7 30.27 1025 4 7 N/A
7:20 am 07:20 Mostly Cloudy 30 -1 28 -2 93 93 NE 10 17 30.27 1025 5 8 N/A
7:50 am 07:50 Cloudy 32 0 28 -2 87 87 NE 12 19 30.27 1025 5 8 N/A
8:20 am 08:20 Mostly Cloudy 32 0 28 -2 87 87 NE 13 20 30.30 1026 5 8 N/A
8:50 am 08:50 Mostly Cloudy 32 0 30 -1 93 93 NE 9 15 30.30 1026 30 48 N/A
9:20 am 09:20 Mostly Cloudy 32 0 30 -1 93 93 NE 12 19 30.30 1026 30 48 N/A
9:50 am 09:50 Mostly Cloudy 32 0 30 -1 93 93 ENE 12 19 30.30 1026 30 48 N/A
10:20 am 10:20 Mostly Cloudy 34 1 30 -1 87 87 NE 10 17 30.30 1026 30 48 N/A
10:50 am 10:50 Mostly Cloudy 34 1 30 -1 87 87 NE 13 20 30.30 1026 30 48 N/A
11:20 am 11:20 Mostly Cloudy 36 2 28 -2 75 75 ENE 17 28 30.30 1026 30 48 N/A
11:50 am 11:50 Mostly Cloudy 36 2 28 -2 75 75 ENE 14 22 30.30 1026 30 48 N/A
12:20 pm 12:20 Mostly Cloudy 37 3 28 -2 70 70 ENE 12 19 30.30 1026 30 48 N/A
12:50 pm 12:50 Mostly Cloudy 37 3 28 -2 70 70 NE 13 20 30.30 1026 30 48 N/A
1:20 pm 13:20 Mostly Sunny 39 4 27 -3 61 61 NE 14 22 30.27 1025 30 48 N/A
1:50 pm 13:50 Partly Cloudy 41 5 28 -2 61 61 NNE 14 22 30.27 1025 30 48 N/A
2:20 pm 14:20 Mostly Sunny 39 4 25 -4 56 56 NNE 14 22 30.27 1025 30 48 N/A
2:50 pm 14:50 Mostly Sunny 39 4 25 -4 56 56 NNE 12 19 30.27 1025 30 48 N/A
3:20 pm 15:20 Mostly Sunny 39 4 25 -4 56 56 NNE 10 17 30.24 1024 30 48 N/A
3:50 pm 15:50 Partly Cloudy 39 4 25 -4 56 56 NE 13 20 30.24 1024 30 48 N/A
4:20 pm 16:20 Partly Cloudy 37 3 25 -4 60 60 NE 13 20 30.24 1024 30 48 N/A
4:50 pm 16:50 Partly Cloudy 37 3 25 -4 60 60 NE 12 19 30.24 1024 30 48 N/A
5:20 pm 17:20 Partly Cloudy 36 2 25 -4 65 65 NE 8 13 30.24 1024 30 48 N/A
5:50 pm 17:50 Partly Cloudy 36 2 25 -4 65 65 NNE 8 13 30.24 1024 30 48 N/A

Powered by AerisWeather